This is the latest recevied weather packets stored in our database for station/object CT1EDG-13. If no packets are shown the sender has not sent any weather packets the latest 10 day(s).
| Time | Temp. | Humidity | Pressure | Rain* | Wind** | Luminosity | Snow |
|---|---|---|---|---|---|---|---|
| 1788525221 | 26.67° C | 92% | 1011.1 hPa | 0 mm | - | - | - |
| 1788525218 | 26.67° C | 92% | 1011.1 hPa | 0 mm | - | - | - |
| 1788524619 | 27.78° C | 89% | 1010.8 hPa | 0 mm | - | - | - |
| 1788524618 | 27.78° C | 89% | 1010.8 hPa | 0 mm | - | - | - |
| 1788524019 | 27.78° C | 88% | 1011 hPa | 0 mm | - | - | - |
| 1788524018 | 27.78° C | 88% | 1011 hPa | 0 mm | - | - | - |
| 1788523419 | 26.67° C | 90% | 1010.9 hPa | 0 mm | - | - | - |
| 1788523418 | 26.67° C | 90% | 1010.9 hPa | 0 mm | - | - | - |
| 1788522820 | 26.11° C | 93% | 1011 hPa | 0 mm | - | - | - |
| 1788522818 | 26.11° C | 93% | 1011 hPa | 0 mm | - | - | - |
| 1788522218 | 27.78° C | 86% | 1010.8 hPa | 0 mm | - | - | - |
| 1788521619 | 27.22° C | 91% | 1011 hPa | 0 mm | - | - | - |
| 1788521618 | 27.22° C | 91% | 1011 hPa | 0 mm | - | - | - |
| 1788521020 | 26.11° C | 92% | 1010.8 hPa | 0 mm | - | - | - |
| 1788521018 | 26.11° C | 92% | 1010.8 hPa | 0 mm | - | - | - |
| 1788520419 | 24.44° C | 10% | - | 0 mm | - | - | - |
| 1788520418 | 24.44° C | 10% | - | 0 mm | - | - | - |
| 1788519821 | 25.56° C | 97% | 1011.1 hPa | 0 mm | - | - | - |
| 1788519818 | 25.56° C | 97% | 1011.1 hPa | 0 mm | - | - | - |
| 1788519220 | 24.44° C | 10% | - | 0 mm | - | - | - |
| 1788519218 | 24.44° C | 10% | - | 0 mm | - | - | - |
| 1788518620 | 25° C | 96% | 1011.2 hPa | 0 mm | - | - | - |
| 1788518618 | 25° C | 96% | 1011.2 hPa | 0 mm | - | - | - |
| 1788518019 | 26.67° C | 84% | 1010.9 hPa | 0 mm | - | - | - |
| 1788518018 | 26.67° C | 84% | 1010.9 hPa | 0 mm | - | - | - |
* Rain latest hour (hover to see other rain measurements)
** Current wind speed in m/s (hover to see current wind gust speed)